Date Time,Air Temp,Sky Temp,Clarity,Light Level,Rain Sensor,Readings
2017-04-23 00:00:03,20.5,-4.3,24.9,0.0,2.2,111
2017-04-23 00:05:03,20.6,-7.8,28.4,0.0,2.2,112
2017-04-23 00:10:03,20.5,-9.2,29.8,0.0,2.2,112
2017-04-23 00:15:03,20.6,-4.1,24.7,0.0,2.2,112
2017-04-23 00:20:03,20.7,-6.1,26.8,0.0,2.2,112
2017-04-23 00:25:03,20.9,-4.3,25.1,0.0,2.1,111
2017-04-23 00:30:03,19.4,2.9,16.4,0.0,2.2,111
2017-04-23 00:35:03,17.5,2.5,15.0,0.0,2.4,111
2017-04-23 00:40:03,17.6,-4.1,21.6,0.0,2.4,112
2017-04-23 00:45:03,19.8,-3.5,23.3,0.0,2.3,111
2017-04-23 00:50:03,18.7,-1.4,20.1,0.0,2.3,112
2017-04-23 00:55:03,20.1,-2.9,22.9,0.0,2.3,112
2017-04-23 01:00:03,20.8,0.4,20.4,0.0,2.2,111
2017-04-23 01:05:03,18.3,1.3,17.1,0.0,2.3,112
2017-04-23 01:10:03,17.3,5.5,11.8,0.0,2.4,112
2017-04-23 01:15:03,16.9,1.5,15.4,0.0,2.3,111
2017-04-23 01:20:03,16.9,2.5,14.3,0.0,2.3,112
2017-04-23 01:25:03,16.8,4.6,12.2,0.0,2.3,111
2017-04-23 01:30:03,16.9,6.9,10.0,0.0,2.3,111
2017-04-23 01:35:03,16.9,5.0,11.9,0.0,2.3,112
2017-04-23 01:40:03,16.8,6.2,10.7,0.0,2.3,111
2017-04-23 01:45:03,16.9,7.4,9.5,0.0,2.3,112
2017-04-23 01:50:03,17.0,7.7,9.3,0.0,2.3,111
2017-04-23 01:55:03,16.9,7.6,9.2,0.0,2.3,111
2017-04-23 02:00:03,17.3,8.0,9.3,0.0,2.3,111
2017-04-23 02:05:03,17.4,7.6,9.8,0.0,2.5,112
2017-04-23 02:10:03,17.4,6.9,10.5,0.0,2.5,112
2017-04-23 02:15:03,17.4,6.0,11.4,0.0,2.6,111
2017-04-23 02:20:03,17.4,7.0,10.4,0.0,2.5,112
2017-04-23 02:25:03,17.4,6.3,11.1,0.0,2.4,111
2017-04-23 02:30:03,17.3,2.8,14.5,0.0,2.4,111
2017-04-23 02:35:03,17.2,1.6,15.6,0.0,2.3,111
2017-04-23 02:40:03,17.0,0.8,16.2,0.0,2.3,111
2017-04-23 02:45:03,16.9,1.8,15.1,0.0,2.2,112
2017-04-23 02:50:03,16.9,5.8,11.1,0.0,2.0,111
2017-04-23 02:55:03,16.9,2.0,14.9,0.0,2.2,112
2017-04-23 03:00:03,17.5,-3.2,20.7,0.0,2.2,112
2017-04-23 03:05:03,20.2,-6.1,26.2,0.0,2.4,112
2017-04-23 03:10:03,20.9,-2.0,22.9,0.0,2.3,111
2017-04-23 03:15:03,19.4,2.7,16.7,0.0,2.3,112
2017-04-23 03:20:03,17.4,2.8,14.6,0.0,2.4,111
2017-04-23 03:25:03,17.0,5.1,11.8,0.0,2.3,112
2017-04-23 03:30:03,16.9,6.1,10.8,0.0,2.3,111
2017-04-23 03:35:03,16.9,6.5,10.4,0.0,2.3,112
2017-04-23 03:40:03,16.9,5.8,11.1,0.0,2.3,111
2017-04-23 03:45:03,16.9,7.0,9.8,0.0,2.3,112
2017-04-23 03:50:03,16.9,4.8,12.2,0.0,2.3,111
2017-04-23 03:55:03,16.9,-0.0,16.9,0.0,2.2,112
2017-04-23 04:00:03,17.2,-1.9,19.1,0.0,2.1,112
2017-04-23 04:05:04,17.0,1.9,15.2,0.0,2.0,111
2017-04-23 04:10:04,16.9,0.0,16.9,0.0,2.1,111
2017-04-23 04:15:04,16.9,1.9,15.0,0.0,2.1,112
2017-04-23 04:20:04,16.7,4.5,12.3,0.0,2.3,111
2017-04-23 04:25:04,16.8,3.1,13.7,0.0,2.3,111
2017-04-23 04:30:04,16.7,2.1,14.6,0.0,2.4,112
2017-04-23 04:35:04,16.7,2.1,14.6,0.0,2.4,111
2017-04-23 04:40:04,16.8,-1.0,17.8,0.0,2.3,111
2017-04-23 04:45:04,18.4,1.3,17.1,0.0,2.2,112
2017-04-23 04:50:04,17.0,5.1,11.9,0.0,2.1,111
2017-04-23 04:55:04,16.8,5.8,11.1,0.1,2.2,112
2017-04-23 05:00:04,16.8,4.9,11.9,0.2,2.2,112
2017-04-23 05:05:04,16.8,4.8,12.0,0.4,2.2,111
2017-04-23 05:10:04,16.8,5.0,11.7,0.8,2.3,112
2017-04-23 05:15:04,16.8,5.3,11.5,1.5,2.3,111
2017-04-23 05:20:04,16.8,5.1,11.7,2.4,2.2,112
2017-04-23 05:25:04,16.8,6.1,10.7,4.6,2.3,111
2017-04-23 05:30:04,16.7,5.8,10.9,8.3,2.4,112
2017-04-23 05:35:04,16.7,5.9,10.9,13.9,2.4,111
2017-04-23 05:40:04,16.7,1.5,15.3,21.0,2.4,112
2017-04-23 05:45:04,16.2,1.4,14.8,25.1,2.3,111
2017-04-23 05:50:04,16.4,3.3,13.1,26.9,2.3,112
2017-04-23 05:55:04,16.4,5.2,11.2,28.3,2.3,111
2017-04-23 06:00:04,16.5,5.5,11.1,29.4,2.3,112
2017-04-23 06:05:05,16.6,3.6,13.0,30.5,2.3,74
2017-04-23 06:10:05,16.7,5.5,11.2,30.9,2.3,112
2017-04-23 06:15:05,16.7,6.4,10.3,30.5,2.4,111
2017-04-23 06:20:05,16.7,5.7,10.9,31.1,2.4,111
2017-04-23 06:25:05,16.5,4.8,11.8,31.4,2.3,112
2017-04-23 06:30:05,16.5,5.0,11.5,31.5,2.3,111
2017-04-23 06:35:05,16.4,2.4,14.0,31.7,2.3,112
2017-04-23 06:40:05,16.2,-1.0,17.2,31.9,2.3,112
2017-04-23 06:45:05,15.9,-1.2,17.2,32.0,2.3,111
2017-04-23 06:50:05,15.9,1.1,14.7,32.1,2.3,111
2017-04-23 06:55:05,17.2,-5.4,22.5,32.0,2.3,112
2017-04-23 07:00:05,19.5,-6.5,26.0,32.1,2.3,111
2017-04-23 07:05:05,20.1,-7.0,27.1,32.2,2.3,111
2017-04-23 07:10:05,20.4,-3.7,24.1,32.3,2.5,112
2017-04-23 07:15:05,19.7,-0.8,20.4,32.3,2.5,111
2017-04-23 07:20:05,20.5,-6.9,27.5,32.3,2.3,112
2017-04-23 07:25:05,21.0,-4.2,25.2,32.3,2.3,112
2017-04-23 07:30:05,21.2,-4.2,25.4,32.3,2.3,112
2017-04-23 07:35:05,21.3,-5.0,26.3,32.3,2.3,112
2017-04-23 07:40:05,21.4,-5.0,26.4,32.3,2.3,112
2017-04-23 07:45:05,21.4,-0.0,21.4,32.3,2.3,111
2017-04-23 07:50:05,19.1,2.4,16.7,32.4,2.3,111
2017-04-23 07:55:05,18.0,3.7,14.3,32.4,2.5,112
2017-04-23 08:00:05,17.8,0.7,17.1,32.4,2.5,111
2017-04-23 08:05:05,17.8,4.7,13.0,32.4,2.4,111
2017-04-23 08:10:05,17.8,5.4,12.4,32.4,2.4,112
2017-04-23 08:15:05,17.9,6.6,11.4,32.4,2.5,111
2017-04-23 08:20:05,18.1,6.4,11.7,32.4,2.5,111
2017-04-23 08:25:05,18.4,5.9,12.4,32.4,2.3,112
2017-04-23 08:30:05,18.6,4.3,14.3,32.4,2.3,111
2017-04-23 08:35:05,18.8,3.1,15.6,32.4,2.3,112
2017-04-23 08:40:05,18.9,6.3,12.6,32.4,2.3,112
2017-04-23 08:45:05,19.2,3.7,15.5,32.5,2.1,111
2017-04-23 08:50:05,19.6,1.7,17.9,32.5,1.8,111
2017-04-23 08:55:05,20.5,0.7,19.8,32.5,2.2,111
2017-04-23 09:00:05,22.8,-1.2,24.0,32.4,2.4,112
2017-04-23 09:05:05,22.8,2.8,20.0,32.5,2.3,112
2017-04-23 09:10:05,23.7,-1.0,24.8,32.5,2.3,111
2017-04-23 09:15:05,24.9,0.1,24.8,32.5,2.3,111
2017-04-23 09:20:05,25.1,-5.0,30.1,32.4,2.3,112
2017-04-23 09:25:05,25.1,-0.1,25.2,32.5,2.3,111
2017-04-23 09:30:05,25.5,2.3,23.2,32.5,2.2,111
2017-04-23 09:35:05,25.3,2.2,23.1,32.5,2.3,111
2017-04-23 09:40:05,26.1,2.0,24.1,32.5,2.3,112
2017-04-23 09:45:05,26.5,4.8,21.6,32.5,2.3,112
2017-04-23 09:50:05,24.8,6.1,18.6,32.5,2.2,111
2017-04-23 09:55:05,23.1,2.7,20.4,32.5,2.3,111
2017-04-23 10:00:05,24.5,-5.1,29.6,32.4,2.3,112
2017-04-23 10:05:05,24.7,-7.2,32.0,32.4,2.2,111
2017-04-23 10:10:05,24.5,-6.8,31.3,32.4,2.3,112
2017-04-23 10:15:05,24.4,-6.5,30.9,32.4,2.3,111
2017-04-23 10:20:05,24.5,-5.3,29.8,32.5,2.3,112
2017-04-23 10:25:05,25.5,-1.2,26.7,32.5,2.3,112
2017-04-23 10:30:06,27.4,-0.5,27.9,32.5,2.2,111
2017-04-23 10:35:06,27.9,-1.2,29.1,32.5,2.3,111
2017-04-23 10:40:06,27.2,-1.5,28.6,32.5,2.2,112
2017-04-23 10:45:06,26.7,2.2,24.5,32.5,2.3,111
2017-04-23 10:50:06,27.3,1.1,26.2,32.6,2.1,111
2017-04-23 10:55:06,27.6,-4.2,31.9,32.5,2.3,112
2017-04-23 11:00:06,27.3,-3.7,31.0,32.5,2.2,112
2017-04-23 11:05:06,27.9,-1.3,29.3,32.6,2.3,111
2017-04-23 11:10:06,29.1,-2.8,31.9,32.6,2.3,111
2017-04-23 11:15:06,29.7,-1.8,31.5,32.6,2.3,112
2017-04-23 11:20:06,29.8,-0.1,29.9,32.6,2.3,111
2017-04-23 11:25:06,30.7,-2.4,33.1,32.5,2.3,112
2017-04-23 11:30:06,30.0,4.8,25.2,32.5,2.3,111
2017-04-23 11:35:06,29.6,7.6,22.0,32.5,2.3,112
2017-04-23 11:40:06,29.1,7.9,21.2,32.5,2.3,112
2017-04-23 11:45:06,26.9,8.4,18.5,32.5,2.3,111
2017-04-23 11:50:06,24.9,7.0,17.9,32.5,2.1,112
2017-04-23 11:55:06,23.9,4.4,19.5,32.5,2.3,111
2017-04-23 12:00:06,25.2,4.2,21.1,32.5,2.3,112
2017-04-23 12:05:06,26.0,8.1,18.0,32.5,2.3,112
2017-04-23 12:10:06,25.8,13.2,12.5,32.6,2.3,111
2017-04-23 12:15:06,26.9,8.2,18.6,32.5,2.3,112
2017-04-23 12:20:06,28.4,7.9,20.5,32.6,2.3,111
2017-04-23 12:25:06,27.4,10.5,17.0,32.6,2.3,112
2017-04-23 12:30:06,26.9,7.0,19.8,32.5,2.3,111
2017-04-23 12:35:06,25.2,6.2,19.1,32.5,2.3,112
2017-04-23 12:40:06,25.8,1.6,24.2,32.5,2.3,111
2017-04-23 12:45:06,27.1,4.9,22.1,32.6,2.3,111
2017-04-23 12:50:06,27.9,9.2,18.8,32.6,2.3,111
2017-04-23 12:55:06,27.8,8.5,19.3,32.6,2.3,112
2017-04-23 13:00:06,29.2,6.6,22.6,32.6,2.2,112
2017-04-23 13:05:06,28.9,6.5,22.4,32.5,2.3,111
2017-04-23 13:10:06,27.8,6.4,21.4,32.5,2.3,112
2017-04-23 13:15:06,25.4,7.0,18.4,32.5,2.2,111
2017-04-23 13:20:06,22.7,6.6,16.1,32.4,2.3,111
2017-04-23 13:25:06,21.4,7.1,14.3,32.4,2.2,112
2017-04-23 13:30:06,20.9,6.9,14.0,32.5,2.3,111
2017-04-23 13:35:06,21.2,4.7,16.5,32.5,2.3,112
2017-04-23 13:40:06,21.7,5.4,16.4,32.6,2.3,111
2017-04-23 13:45:06,23.4,11.6,11.8,32.6,2.3,111
2017-04-23 13:50:06,24.9,7.1,17.8,32.5,2.1,112
2017-04-23 13:55:06,24.2,6.9,17.3,32.5,2.3,111
2017-04-23 14:00:06,23.1,6.6,16.5,32.5,2.3,112
2017-04-23 14:05:06,22.8,5.2,17.6,32.6,2.3,111
2017-04-23 14:10:06,24.6,4.7,19.9,32.6,2.3,111
2017-04-23 14:15:06,28.2,4.3,23.9,32.6,2.3,112
2017-04-23 14:20:06,30.0,2.4,27.6,32.6,2.3,111
2017-04-23 14:25:06,31.1,5.4,25.7,32.6,2.3,112
2017-04-23 14:30:06,32.4,4.5,28.0,32.6,2.3,111
2017-04-23 14:35:06,32.9,6.2,26.7,32.6,2.4,112
2017-04-23 14:40:06,33.6,8.7,24.9,32.6,2.3,111
2017-04-23 14:45:06,33.0,9.5,23.5,32.6,2.2,112
2017-04-23 14:50:06,31.7,8.1,23.6,32.5,2.3,111
2017-04-23 14:55:06,30.5,7.4,23.1,32.5,2.3,112
2017-04-23 15:00:06,29.1,7.2,22.0,32.5,2.3,111
2017-04-23 15:05:06,28.2,6.9,21.4,32.5,2.3,111
2017-04-23 15:10:06,27.5,9.7,17.8,32.6,2.3,112
2017-04-23 15:15:06,27.1,6.4,20.8,32.6,2.3,111
2017-04-23 15:20:06,29.0,8.5,20.5,32.6,2.2,112
2017-04-23 15:25:06,28.0,13.1,14.9,32.6,2.3,111
2017-04-23 15:30:06,28.2,10.7,17.5,32.6,2.3,112
2017-04-23 15:35:06,30.1,6.3,23.8,32.5,2.3,111
2017-04-23 15:40:06,29.1,6.4,22.7,32.5,2.3,112
2017-04-23 15:45:06,28.0,6.8,21.2,32.5,2.3,111
2017-04-23 15:50:06,26.6,7.3,19.4,32.5,2.3,111
2017-04-23 15:55:06,23.9,7.7,16.2,32.5,2.2,112
2017-04-23 16:00:06,22.9,7.2,15.7,32.5,2.3,111
2017-04-23 16:05:06,22.7,6.6,16.1,32.5,2.3,112
2017-04-23 16:10:06,22.7,5.3,17.4,32.5,2.3,111
2017-04-23 16:15:06,22.4,5.1,17.3,32.5,2.3,112
2017-04-23 16:20:06,22.2,5.6,16.6,32.5,2.3,111
2017-04-23 16:25:06,22.0,6.2,15.8,32.5,2.3,112
2017-04-23 16:30:06,22.0,7.0,15.0,32.6,2.3,111
2017-04-23 16:35:06,23.9,2.5,21.5,32.6,2.3,112
2017-04-23 16:40:06,26.4,2.0,24.4,32.5,2.2,111
2017-04-23 16:45:06,26.8,2.7,24.2,32.5,2.3,111
2017-04-23 16:50:06,26.9,4.1,22.7,32.5,2.3,112
2017-04-23 16:55:06,26.9,4.4,22.4,32.5,2.3,111
2017-04-23 17:00:06,26.8,4.3,22.5,32.5,2.3,112
2017-04-23 17:05:06,26.5,4.1,22.4,32.5,2.3,111
2017-04-23 17:10:06,26.1,5.5,20.6,32.6,2.1,112
2017-04-23 17:15:06,26.6,5.4,21.2,32.5,2.3,112
2017-04-23 17:20:06,26.5,6.0,20.5,32.5,2.3,112
2017-04-23 17:25:06,26.3,4.2,22.1,32.5,2.2,112
2017-04-23 17:30:06,25.3,7.0,18.3,32.5,2.2,111
2017-04-23 17:35:06,23.0,5.0,18.0,32.5,2.3,112
2017-04-23 17:40:06,22.1,8.4,13.8,32.6,2.3,111
2017-04-23 17:45:06,22.5,8.8,13.7,32.5,2.3,112
2017-04-23 17:50:06,22.9,8.7,14.2,32.6,2.3,111
2017-04-23 17:55:06,24.2,5.3,18.9,32.6,2.3,112
2017-04-23 18:00:06,24.3,7.1,17.3,32.6,2.2,111
2017-04-23 18:05:06,25.5,4.7,20.8,32.5,2.2,112
2017-04-23 18:10:06,27.0,4.1,22.8,32.5,2.3,111
2017-04-23 18:15:06,27.1,1.1,26.1,32.5,2.3,112
2017-04-23 18:20:06,27.0,0.2,26.9,32.5,2.3,111
2017-04-23 18:25:06,27.0,0.3,26.7,32.5,2.3,112
2017-04-23 18:30:06,27.0,-2.7,29.8,32.5,2.3,112
2017-04-23 18:35:06,27.0,-2.8,29.8,32.6,2.3,111
2017-04-23 18:40:06,26.9,-5.0,31.9,32.5,2.3,112
2017-04-23 18:45:06,26.5,-6.3,32.8,32.5,2.1,112
2017-04-23 18:50:06,25.8,-6.3,32.1,32.4,2.3,111
2017-04-23 18:55:06,25.2,-6.5,31.8,32.4,2.3,112
2017-04-23 19:00:06,24.7,-6.2,31.0,32.4,2.3,112
2017-04-23 19:05:06,23.8,-5.8,29.6,32.4,2.3,111
2017-04-23 19:10:06,24.0,-4.4,28.4,32.4,2.2,112
2017-04-23 19:15:06,23.8,-3.3,27.1,32.3,2.3,111
2017-04-23 19:20:06,23.6,-1.5,25.2,32.3,2.3,112
2017-04-23 19:25:06,23.7,1.0,22.7,32.4,2.3,111
2017-04-23 19:30:06,24.0,1.4,22.5,32.4,2.3,111
2017-04-23 19:35:06,24.2,0.4,23.8,32.4,2.2,111
2017-04-23 19:40:06,24.4,0.6,23.8,32.3,2.3,111
2017-04-23 19:45:06,24.4,-4.9,29.3,32.3,2.2,111
2017-04-23 19:50:06,24.2,-7.3,31.5,32.2,2.2,112
2017-04-23 19:55:06,23.9,-7.8,31.8,32.0,2.3,111
2017-04-23 20:00:06,23.5,-8.2,31.7,31.8,2.3,112
2017-04-23 20:05:06,23.2,-7.9,31.1,31.5,2.3,111
2017-04-23 20:10:06,22.9,-7.7,30.5,31.1,2.3,112
2017-04-23 20:15:06,22.6,-6.9,29.6,30.4,2.2,111
2017-04-23 20:20:06,22.4,-8.5,30.8,29.4,2.3,112
2017-04-23 20:25:06,22.2,-8.6,30.8,27.8,2.3,112
2017-04-23 20:30:06,22.0,-8.8,30.8,25.3,2.3,112
2017-04-23 20:35:06,21.8,-8.8,30.7,21.3,2.3,112
2017-04-23 20:40:06,21.8,-8.6,30.4,16.0,2.4,112
2017-04-23 20:45:06,21.7,-8.5,30.2,10.7,2.6,112
2017-04-23 20:50:06,21.6,-8.5,30.1,6.5,2.5,112
2017-04-23 20:55:06,21.7,-8.5,30.2,3.6,2.4,112
2017-04-23 21:00:06,21.5,-9.0,30.5,1.9,2.4,112
2017-04-23 21:05:06,21.4,-8.9,30.3,1.0,2.3,112
2017-04-23 21:10:06,21.5,-8.6,30.1,0.5,2.3,112
2017-04-23 21:15:06,21.6,-8.5,30.1,0.2,2.3,112
2017-04-23 21:20:06,21.2,-8.3,29.5,0.1,2.3,112
2017-04-23 21:25:06,21.6,-8.1,29.8,0.0,2.4,111
2017-04-23 21:30:06,21.7,-8.2,29.9,0.0,2.5,112
2017-04-23 21:35:06,21.7,-8.3,30.0,0.0,2.5,112
2017-04-23 21:40:06,21.7,-8.3,29.9,0.0,2.5,112
2017-04-23 21:45:06,21.7,-8.6,30.3,0.0,2.5,112
2017-04-23 21:50:06,21.5,-8.4,30.0,0.0,2.3,112
2017-04-23 21:55:06,21.5,-8.2,29.8,0.0,2.4,112
2017-04-23 22:00:06,21.5,-8.6,30.1,0.0,2.3,112
2017-04-23 22:05:06,21.5,-8.9,30.4,0.0,2.3,111
2017-04-23 22:10:06,21.5,-8.3,29.7,0.0,2.3,112
2017-04-23 22:15:06,21.4,-8.1,29.5,0.0,2.3,112
2017-04-23 22:20:06,21.3,-6.3,27.7,0.0,2.3,111
2017-04-23 22:25:06,21.3,-3.3,24.7,0.0,2.3,112
2017-04-23 22:30:06,21.4,-0.5,21.9,0.0,2.3,111
2017-04-23 22:35:06,19.5,1.5,18.1,0.0,1.9,112
2017-04-23 22:40:06,17.8,0.7,17.1,0.0,2.2,111
2017-04-23 22:45:06,17.3,3.0,14.3,0.0,2.3,112
2017-04-23 22:50:06,17.2,3.7,13.4,0.0,2.3,111
2017-04-23 22:55:06,17.1,1.3,15.7,0.0,2.3,111
2017-04-23 23:00:06,16.9,0.2,16.7,0.0,2.3,111
2017-04-23 23:05:06,16.8,0.9,15.9,0.0,2.6,111
2017-04-23 23:10:06,16.8,1.3,15.5,0.0,2.5,111
2017-04-23 23:15:06,16.8,1.1,15.7,0.0,2.5,111
2017-04-23 23:20:06,16.9,3.7,13.1,0.0,2.5,112
2017-04-23 23:25:06,16.9,4.8,12.2,0.0,2.5,111
2017-04-23 23:30:06,17.1,4.4,12.8,0.0,2.4,112
2017-04-23 23:35:06,17.2,1.3,15.9,0.0,2.4,111
2017-04-23 23:40:06,17.0,1.1,15.8,0.0,2.5,111
2017-04-23 23:45:06,16.9,1.9,15.0,0.0,2.3,111
2017-04-23 23:50:06,16.9,3.2,13.7,0.0,2.3,112
2017-04-23 23:55:06,16.9,4.2,12.8,0.0,2.3,112
